Location: Buchberg
(46.9333°N, 15.8500°E)
Time: 04:25:26
(UTC+00:00)

USA 267 - Pass Details

Date: 14 July 2020
Orbit: 1102 x 1106 km, 123.0° (Epoch: 09 August)

Event Time Altitude Azimuth Distance (km) Brightness Sun altitude
Exits shadow 00:32:10 23° 233° (SW) 2,131 4.3 -18.5°
Maximum altitude 00:32:20 23° 235° (SW) 2,130 4.3 -18.5°
Drops below altitude 10° 00:37:23 10° 286° (WNW) 2,962 5.4 -18.2°
Sets 00:40:29 0° 301° (WNW) 3,924 6.2 -18.0°
